Theta_e
321 321 319 320 316 315 314 314 322 321 322 323 322 323 322 324 323 323 324 322 323 321 318 316 315 316 319 322 324 328 329 329 331 329 330 341 338 337 340 337 339 340 341 341 341 342 341 342 342 342 342 342 342 341 339 338 337 335 334 338 342 343 344 343 343 343 340 329 318 321 321 322 325 326 326 323 320 318 314 311 319 332 336 336 338 339 339 339 339 339 338 339 340 341 341 341 341
322 322 321 321 315 323 328 314 320 323 321 324 322 323 322 321 322 323 323 321 321 319 317 316 315 314 315 319 323 327 330 332 335 334 337 339 337 339 339 337 340 339 341 341 342 340 340 341 340 342 342 342 343 341 339 338 337 335 334 337 341 342 343 343 344 343 339 331 321 319 319 322 325 327 327 326 324 320 317 312 311 324 335 336 336 338 339 338 338 338 338 339 339 340 340 340 340
322 322 321 323 320 327 336 324 319 322 323 325 322 322 321 321 322 321 320 319 318 317 315 315 314 315 318 321 325 327 331 335 336 336 338 339 340 340 338 338 339 339 341 341 341 340 340 340 338 341 341 342 342 339 338 338 337 335 333 335 340 341 342 343 343 341 339 335 326 320 320 323 326 329 329 327 326 324 320 315 310 318 333 337 335 337 338 338 337 337 337 338 338 338 339 339 339
320 322 320 324 331 332 340 334 323 321 323 324 323 321 320 321 320 318 318 318 317 314 313 315 316 319 324 326 328 329 332 335 336 337 339 340 340 340 338 338 339 339 341 341 341 340 340 338 334 335 336 338 339 337 336 337 337 335 333 334 340 341 341 343 342 340 338 337 332 323 321 326 329 331 331 330 328 327 323 317 313 313 326 336 336 335 338 337 337 336 336 337 337 338 337 338 338
320 322 318 323 338 336 337 335 324 320 322 321 320 318 318 319 318 319 319 318 315 312 313 315 318 322 327 331 331 330 335 337 337 339 339 340 340 339 338 338 339 339 341 341 340 340 340 337 332 330 328 328 331 335 335 336 336 335 333 332 338 341 341 342 341 340 339 339 334 324 324 330 333 334 334 332 330 328 326 320 316 312 317 332 336 334 337 337 336 336 335 336 336 337 337 336 337
321 321 319 322 331 331 334 334 327 323 320 317 317 316 316 318 318 319 319 317 314 312 313 314 316 321 327 332 333 334 339 339 338 338 339 341 338 338 338 338 339 340 342 341 340 341 340 337 335 334 332 328 325 329 334 335 335 334 333 332 336 340 341 341 341 341 339 339 335 327 328 333 335 336 336 334 332 330 329 324 318 314 314 327 335 334 336 336 336 336 335 335 335 336 336 335 335
322 326 327 329 329 328 336 336 331 327 319 315 315 315 315 317 319 318 319 318 316 314 312 312 314 319 327 330 332 336 338 339 339 338 339 340 338 338 338 338 339 340 342 341 340 341 340 337 336 337 336 336 330 323 328 332 333 334 333 332 336 340 341 341 342 341 340 340 337 333 333 335 336 338 337 335 333 331 331 327 321 316 313 322 332 335 335 335 335 335 335 335 335 335 335 335 335
322 329 330 334 334 330 335 335 334 329 320 315 313 314 315 318 319 319 320 318 318 315 313 312 313 318 326 328 332 336 337 339 339 339 339 339 338 338 338 338 339 340 342 342 341 341 340 336 335 337 336 339 337 327 323 323 326 331 333 332 336 340 341 341 342 342 340 340 338 337 337 337 338 338 338 337 334 333 332 329 324 317 314 317 327 333 334 335 335 334 335 335 334 335 335 335 335
322 327 330 335 336 332 334 335 335 330 322 318 315 315 318 319 319 320 319 319 318 316 314 312 312 316 323 326 330 336 338 339 338 339 339 339 339 338 338 338 339 340 342 342 340 342 339 336 335 337 337 339 340 336 328 324 323 326 330 331 335 340 341 341 341 341 339 339 339 338 339 338 339 339 339 337 334 334 333 331 326 318 315 315 320 330 333 334 334 332 333 334 334 334 334 335 335
326 328 332 335 335 334 336 335 335 333 326 323 322 319 321 320 320 321 320 320 318 317 315 310 312 316 320 326 332 336 339 339 339 339 339 339 339 338 338 337 339 341 342 342 341 342 339 337 337 336 338 339 340 339 335 332 327 323 327 331 336 339 340 341 341 340 338 339 340 340 340 339 340 340 339 338 335 335 334 332 327 317 316 316 316 326 332 333 334 333 331 331 332 334 334 334 335
331 328 331 335 336 336 337 336 334 333 328 327 328 326 325 322 321 322 320 319 317 318 317 312 314 316 319 328 335 337 338 339 340 339 339 339 338 338 337 337 339 341 341 342 341 341 340 339 338 337 338 340 341 339 336 334 326 321 328 330 336 340 340 340 339 338 337 340 342 342 341 340 340 340 340 339 336 336 335 333 327 319 316 316 315 325 332 332 333 333 331 330 330 332 332 333 335
333 331 332 334 336 336 336 336 333 332 331 329 330 329 328 325 324 323 321 321 319 320 318 314 315 316 322 331 333 337 338 338 339 339 340 339 338 337 337 338 339 341 341 342 341 341 340 340 340 338 339 340 340 336 332 331 324 322 330 332 337 340 340 340 338 336 335 339 342 342 341 341 340 340 340 339 338 337 336 333 327 322 320 317 314 321 330 331 332 332 332 331 329 330 331 332 334
331 331 334 335 334 335 335 334 333 331 331 332 331 330 328 328 329 326 323 322 321 321 318 313 313 317 322 326 330 336 339 337 339 339 339 339 338 338 337 338 339 340 341 341 341 341 340 340 341 340 341 339 333 328 328 331 329 328 332 335 339 340 340 340 338 335 335 338 341 342 341 340 340 340 340 339 339 337 335 333 327 323 322 318 313 315 320 326 330 331 332 332 331 329 329 331 333
328 329 333 335 332 333 334 333 334 331 331 333 333 331 329 330 331 327 324 323 322 321 319 312 313 320 320 322 328 331 334 336 338 339 339 340 338 338 337 338 339 340 341 342 341 341 342 341 341 341 339 330 323 325 330 333 334 333 334 337 340 341 341 341 339 336 335 337 339 341 341 341 340 340 340 340 338 337 336 334 329 324 323 320 313 311 312 321 330 330 330 331 331 331 329 329 330
325 328 330 332 330 331 332 333 333 331 333 334 331 331 329 329 329 327 325 325 324 320 319 315 313 320 320 321 324 324 329 333 337 339 339 340 339 338 338 338 339 340 341 342 341 341 342 342 342 340 333 327 327 332 334 332 333 336 337 339 340 341 342 342 340 338 337 336 338 341 342 341 341 340 340 340 338 337 336 335 331 326 324 321 316 312 311 316 325 328 328 330 330 331 331 329 329
322 325 328 330 330 330 330 330 331 330 332 331 329 329 329 329 327 327 326 325 325 320 320 320 316 320 321 321 324 328 332 333 336 339 339 339 339 339 338 337 337 340 341 341 341 341 341 342 342 339 332 332 335 336 336 333 334 337 339 340 341 342 342 342 342 340 338 337 338 341 341 341 341 340 341 340 339 338 336 335 333 328 324 322 319 315 313 312 315 318 321 326 329 330 330 329 328
320 323 327 330 329 329 329 329 329 329 329 327 328 328 328 330 327 326 324 322 325 323 321 321 318 320 323 326 330 333 334 334 336 339 339 339 339 339 339 338 337 338 340 340 341 341 341 341 341 339 334 335 337 336 336 336 337 339 340 341 342 342 342 343 342 341 339 338 339 340 341 342 341 340 340 340 339 338 337 335 333 330 325 323 321 318 317 315 314 315 315 319 326 330 330 329 328
321 324 327 329 328 327 326 327 326 325 326 326 327 328 327 329 328 326 324 324 324 324 323 321 318 319 325 331 332 334 336 336 337 339 339 339 339 339 339 339 339 338 339 339 340 341 342 341 341 340 336 335 336 336 336 337 339 339 340 341 342 343 342 343 342 342 341 340 340 341 342 341 341 341 340 340 340 338 337 336 333 332 328 323 323 321 320 319 319 320 319 317 321 325 326 324 326
322 325 326 327 326 325 323 323 323 322 324 324 326 328 327 328 328 326 325 326 326 326 326 324 321 319 325 331 332 335 337 337 338 339 340 340 339 339 340 339 339 339 339 339 339 340 341 341 341 341 339 336 334 334 335 337 338 338 339 340 341 342 342 342 342 342 342 342 342 342 341 341 341 341 340 340 340 338 337 336 334 333 330 325 324 324 323 322 322 323 324 323 321 322 323 323 323
322 323 326 325 322 322 320 319 318 317 320 323 326 327 327 326 327 326 325 326 325 325 326 327 326 321 321 327 332 336 337 338 338 339 339 339 339 339 340 339 339 339 339 339 339 339 340 341 341 341 341 338 336 334 333 335 336 337 338 339 340 340 341 341 341 342 341 341 341 341 341 341 341 341 340 340 339 338 337 337 335 333 332 328 326 327 326 325 326 326 326 326 326 326 326 326 323
321 321 324 322 319 321 319 315 312 310 314 319 324 326 325 325 325 325 325 325 325 325 324 326 326 322 322 324 329 337 338 338 338 338 340 339 339 339 340 339 339 339 339 339 339 339 339 340 341 341 340 340 339 337 335 335 335 336 337 337 338 339 340 340 339 340 340 341 340 340 341 341 340 340 340 340 339 338 337 336 335 334 334 331 328 329 330 328 329 330 329 328 329 329 328 327 325
318 319 319 316 316 321 318 312 308 307 309 313 319 323 320 320 322 324 325 325 324 324 323 324 325 324 325 323 325 335 338 338 339 339 339 340 339 338 339 340 339 338 338 338 339 339 338 339 340 340 340 339 340 339 338 337 336 337 337 337 337 338 339 339 339 339 339 340 340 340 341 340 340 339 339 340 339 339 337 336 335 335 335 333 330 330 332 331 330 331 330 330 330 329 329 328 327
315 316 314 311 311 315 313 309 307 306 307 308 312 314 311 313 319 321 323 324 324 324 322 323 326 324 322 320 323 332 337 336 339 340 339 339 339 339 338 339 339 339 338 338 338 338 338 338 339 339 339 340 339 339 339 339 338 337 337 337 337 338 338 338 339 339 339 339 339 340 339 340 339 338 338 338 339 339 338 337 336 335 335 334 332 331 330 330 331 331 331 330 330 329 329 329 328
313 313 310 309 307 308 308 307 306 305 306 307 307 308 308 311 314 317 319 321 322 322 321 321 324 322 320 320 320 327 334 336 338 339 339 339 339 339 339 338 339 338 338 338 338 338 338 338 339 339 339 339 339 338 339 339 338 338 338 338 338 338 338 338 339 338 339 339 338 338 338 338 338 338 339 338 339 339 338 337 336 335 335 335 334 332 330 330 330 330 330 330 330 329 329 329 328
309 309 307 307 306 306 306 305 305 305 306 306 306 307 308 309 310 312 313 314 317 319 320 320 321 323 323 322 320 322 328 333 337 337 338 338 338 339 339 339 339 337 337 338 338 337 338 338 339 339 338 338 339 339 339 338 337 338 338 338 338 338 338 338 337 337 337 337 337 337 337 337 337 337 338 338 339 338 337 337 336 335 334 334 334 333 332 330 329 329 330 330 330 329 329 329 329
306 306 306 305 305 306 306 306 305 305 305 305 306 307 308 309 309 310 311 310 312 316 319 320 321 323 323 322 323 323 323 326 331 335 336 336 337 338 338 338 337 337 338 338 338 338 337 337 339 339 338 338 338 338 338 338 337 337 337 337 336 337 338 337 336 336 336 336 336 335 335 335 336 336 337 337 338 338 338 337 336 335 335 334 334 334 333 332 330 329 329 329 329 329 329 329 329
304 305 305 305 305 306 305 305 306 305 305 305 305 306 307 308 309 310 313 313 312 314 317 319 320 320 322 322 323 324 323 321 322 325 330 333 335 335 337 338 335 336 338 339 338 338 338 337 339 339 338 338 338 338 338 338 337 336 336 336 335 335 335 336 335 334 335 335 335 335 335 334 335 335 334 335 336 337 336 336 336 335 334 333 334 334 333 332 331 331 329 329 329 329 329 329 330
304 304 305 305 305 305 305 305 306 306 305 305 306 306 307 308 308 308 311 313 312 314 316 317 318 319 320 320 321 321 322 320 317 317 322 327 332 334 336 337 335 335 337 338 338 338 338 337 338 339 339 339 338 337 337 338 337 336 336 336 335 335 334 334 333 333 333 334 335 335 335 335 335 334 334 335 335 335 334 336 335 335 334 332 334 335 333 332 331 330 329 329 329 329 329 330 330
304 304 304 305 305 304 304 305 306 305 305 306 305 305 306 307 308 307 308 310 309 312 314 315 317 318 319 320 320 320 321 321 318 317 317 319 326 330 333 335 336 336 337 338 337 338 337 336 336 337 338 338 338 337 337 337 337 336 336 335 335 334 334 333 333 333 333 333 334 334 334 334 334 335 335 335 335 334 335 335 334 334 334 333 333 335 335 333 331 330 329 328 329 329 329 330 330
304 304 304 303 304 304 303 304 305 305 305 307 305 303 304 306 307 308 309 310 310 309 309 311 314 317 317 319 320 320 320 321 321 320 318 316 317 321 323 326 332 336 337 337 337 337 337 337 336 336 336 337 337 337 337 336 336 336 335 335 334 333 333 333 333 333 333 333 333 334 334 334 333 333 333 333 333 334 335 335 334 334 333 333 333 334 334 332 331 331 330 328 328 329 329 330 331
303 304 304 302 302 303 303 303 305 306 306 307 306 304 305 306 306 307 307 309 310 308 307 308 310 313 315 317 319 319 320 321 321 322 320 319 317 316 316 316 323 332 336 336 336 336 336 336 336 336 336 336 337 336 336 335 335 335 335 334 333 333 333 333 333 333 333 333 333 333 333 333 333 332 331 331 333 334 335 335 335 333 333 333 333 332 333 332 331 331 329 328 328 329 330 330 331
302 302 303 304 302 303 303 302 304 305 306 307 306 305 305 305 305 305 306 308 310 308 308 308 309 311 313 315 316 318 320 321 322 322 322 321 319 318 317 316 316 323 332 336 335 335 336 335 335 334 334 334 335 336 335 335 335 334 334 334 333 332 332 332 332 333 333 333 333 333 332 332 333 333 333 334 335 335 335 336 336 334 334 334 333 333 332 331 331 329 328 327 328 329 330 330 330
302 300 300 303 302 301 302 302 303 304 306 307 306 305 305 305 304 304 306 308 309 308 308 309 310 311 311 312 313 315 316 318 320 320 321 321 320 318 318 318 316 317 325 332 333 334 334 334 333 332 332 332 332 335 336 335 335 334 333 334 333 333 332 331 331 332 333 332 332 333 333 333 332 332 332 331 332 334 335 335 336 335 334 333 332 332 331 331 330 329 327 327 328 328 329 329 330
301 301 301 302 300 300 300 301 303 303 304 306 306 305 305 305 304 304 305 307 307 306 307 308 308 308 308 309 310 311 312 314 316 318 320 319 319 318 318 318 317 315 317 326 332 334 334 334 331 326 327 331 331 332 335 334 334 333 333 333 333 333 332 331 331 331 332 332 332 332 332 333 332 331 331 330 329 333 334 334 334 334 333 333 332 331 331 330 329 327 327 327 327 328 328 330 331
299 300 300 300 300 299 300 300 302 302 302 303 303 304 304 304 304 305 305 306 306 305 305 306 306 306 306 306 307 308 309 310 311 314 316 316 316 317 318 317 318 317 315 320 326 327 328 329 327 324 326 332 333 331 333 332 332 332 333 333 333 332 331 331 331 330 331 331 331 332 332 332 331 332 334 333 332 332 332 330 331 332 332 332 331 330 330 328 327 327 327 328 328 328 329 331 333
298 298 297 298 299 299 301 301 301 300 300 300 301 301 301 302 302 303 304 305 305 304 305 305 305 305 306 306 306 307 307 307 308 310 312 313 313 313 314 316 317 318 317 316 317 316 317 317 318 321 325 331 333 333 333 332 331 331 332 333 333 332 331 331 330 329 330 330 330 330 331 331 331 332 333 335 334 333 332 330 331 333 332 331 330 329 329 327 327 327 327 328 329 330 330 332 333
298 298 297 298 297 298 300 300 300 301 299 298 300 300 300 300 301 301 302 303 303 303 303 304 304 305 305 306 306 306 306 307 308 309 309 309 309 309 310 313 314 316 318 317 316 314 314 313 314 316 319 328 333 333 334 334 332 332 331 332 333 332 332 331 330 330 330 330 330 330 330 330 330 330 330 332 332 331 330 329 330 331 330 329 329 328 328 327 327 328 329 329 330 331 332 332 333
299 298 298 298 298 299 300 299 299 301 299 299 299 300 300 300 301 301 301 301 302 302 302 302 303 303 304 305 305 305 306 307 308 308 307 307 307 307 307 310 314 316 317 317 317 317 315 315 315 315 317 323 330 333 334 334 334 333 333 332 333 332 332 332 331 330 330 330 330 330 330 329 330 330 329 329 329 330 330 329 329 330 330 329 328 328 328 328 329 329 330 331 331 332 333 332 332
299 299 298 299 299 299 299 299 299 300 299 299 300 300 300 301 301 301 300 300 301 301 301 302 302 302 303 303 304 304 304 305 306 306 307 307 307 307 308 310 313 315 315 314 316 318 317 316 316 316 317 318 323 330 333 334 333 333 333 333 333 332 330 330 331 329 329 328 328 328 328 328 328 329 329 329 329 330 331 331 330 330 330 330 329 328 329 329 331 331 331 332 333 333 332 332 332
299 299 299 299 299 298 298 299 298 299 299 299 300 299 299 300 301 301 300 300 301 301 302 302 301 302 302 302 303 303 303 304 304 305 305 306 306 306 308 310 310 312 313 314 315 317 316 316 317 317 318 318 320 326 331 333 333 332 332 331 331 330 327 326 326 326 325 324 324 325 325 325 325 326 327 328 328 329 330 330 330 330 330 330 330 330 330 331 331 331 332 333 333 333 333 333 333
300 300 299 299 300 298 297 298 298 298 299 299 298 298 299 301 302 302 301 300 301 301 302 301 301 301 301 302 302 302 302 303 303 304 304 305 306 306 308 309 309 310 312 313 313 315 316 316 317 317 318 319 320 324 329 332 331 330 329 327 325 324 323 322 322 322 322 322 321 321 321 322 322 323 324 325 326 326 327 328 329 330 331 331 331 331 332 332 331 332 332 333 333 333 332 332 332
299 300 300 300 300 299 298 297 297 298 298 299 299 298 299 301 303 304 303 301 301 300 301 301 301 301 302 302 302 302 302 302 303 303 304 304 306 307 309 309 309 310 310 311 312 313 315 314 315 317 319 321 322 324 328 331 330 329 327 324 322 320 317 317 319 318 317 318 318 317 318 318 318 319 320 321 322 323 323 325 326 327 329 330 330 331 331 332 331 332 333 333 333 332 332 331 331
298 299 299 299 300 299 298 297 297 297 298 299 299 298 298 300 302 304 304 303 302 301 300 301 301 301 301 301 302 302 302 302 302 303 303 304 305 306 308 309 309 309 309 310 310 311 312 312 313 316 319 321 323 325 328 329 328 328 326 323 321 321 316 312 314 314 313 314 313 312 312 313 313 314 314 315 317 318 319 320 321 322 323 325 326 327 328 328 328 328 330 332 333 332 332 331 331
298 298 298 299 299 299 299 298 298 298 298 299 298 298 298 299 300 301 303 304 303 302 300 301 301 301 301 301 302 302 302 302 302 303 303 303 304 305 306 308 308 308 308 307 307 308 308 309 310 312 315 319 322 325 326 328 328 327 324 320 317 318 316 311 309 309 310 311 310 308 307 308 308 308 308 309 311 312 312 314 316 317 318 318 319 320 322 323 323 323 325 328 330 330 331 330 330
298 297 298 299 299 299 299 298 298 298 299 299 299 299 299 299 300 300 301 302 303 302 301 300 301 301 301 301 301 302 302 302 302 302 303 303 304 305 306 307 307 306 305 305 305 305 306 307 308 309 310 313 318 321 322 324 326 326 323 319 314 313 313 310 307 306 305 306 306 306 305 305 305 305 305 306 306 306 307 309 310 312 313 313 314 314 314 316 318 319 320 322 324 325 327 327 329
298 297 298 298 298 298 298 299 299 299 300 299 300 300 299 299 299 300 299 300 300 301 300 300 301 301 301 301 301 301 301 301 302 302 302 303 304 304 305 306 305 304 304 304 304 304 304 305 306 306 306 309 312 314 315 316 320 321 320 319 314 309 308 306 304 304 304 304 304 304 304 304 304 304 304 304 304 304 304 305 305 307 308 309 310 310 310 310 311 313 315 316 317 318 320 322 324
297 297 297 298 298 297 297 298 299 300 300 300 300 300 299 298 298 299 299 299 299 299 299 300 301 301 301 301 301 301 301 301 301 301 301 302 303 304 303 304 303 303 302 302 302 302 303 304 304 304 304 306 307 308 310 311 313 314 314 315 313 308 306 305 304 303 303 303 303 303 303 303 302 303 303 303 303 303 303 303 303 304 304 305 305 306 307 307 307 308 309 310 310 312 313 315 317
297 297 298 298 298 297 297 298 299 300 300 300 300 300 300 299 298 298 299 299 298 299 299 300 300 300 301 302 301 300 301 300 300 300 300 301 302 302 302 303 303 302 301 301 301 301 302 303 303 303 303 304 304 305 307 307 308 309 307 309 310 308 306 306 304 303 303 303 302 302 302 302 302 302 302 302 302 303 302 302 303 303 303 303 303 303 304 305 305 305 305 306 306 307 308 309 312
298 298 298 298 298 297 297 297 299 300 299 299 300 300 300 299 298 298 298 298 298 299 299 299 299 300 301 302 302 301 300 300 299 299 300 301 301 301 302 302 302 301 301 301 301 301 301 302 302 303 302 303 303 304 304 304 305 306 304 304 306 305 305 305 304 304 303 303 302 302 302 302 302 302 302 302 302 302 302 302 302 303 303 303 303 303 303 303 304 304 304 304 304 305 305 307 309
298 298 299 298 298 298 297 297 297 298 298 299 299 299 299 299 298 298 298 298 299 299 299 299 299 299 300 301 302 301 299 298 298 299 300 300 301 302 302 302 302 301 300 300 300 300 301 301 302 302 302 302 303 303 303 303 303 304 303 303 303 303 303 303 303 303 303 303 303 303 302 302 301 301 300 300 300 300 300 300 301 301 301 302 302 303 303 303 303 303 303 303 304 304 305 306 307
298 299 299 299 298 297 296 296 296 296 296 296 297 298 299 299 299 299 299 298 299 299 299 299 299 299 299 300 300 299 297 297 297 298 299 300 301 302 302 301 301 301 300 299 299 299 300 300 301 301 301 301 302 302 302 302 303 303 303 302 302 302 302 302 302 302 301 302 302 302 301 301 300 300 299 299 298 298 298 298 298 298 299 299 300 301 302 303 303 303 303 303 303 303 304 306 306
298 299 299 298 298 297 295 296 296 296 295 295 296 297 298 298 299 298 298 297 297 298 299 299 299 299 299 299 299 298 298 298 298 298 299 299 300 301 301 300 300 299 299 299 299 299 299 299 299 300 300 300 300 301 301 301 301 301 301 301 301 301 301 300 300 299 299 300 300 300 299 299 299 298 298 298 298 297 297 297 297 297 297 297 298 298 299 300 301 302 302 303 303 303 303 304 305
297 299 299 298 297 298 297 297 297 296 295 296 296 295 296 296 297 297 297 297 296 297 298 298 299 299 299 299 299 299 299 299 298 298 299 299 300 300 300 299 299 298 298 298 298 298 298 298 298 298 298 299 299 299 300 300 300 300 300 300 300 300 300 299 298 298 298 298 298 298 298 297 297 297 297 297 297 297 297 297 297 297 297 297 297 297 297 297 298 299 299 300 301 302 302 302 303
297 298 298 297 297 297 297 297 298 297 297 297 295 295 295 295 296 296 296 296 296 297 297 297 298 298 298 298 298 299 299 298 298 298 299 298 299 299 299 298 298 297 297 296 296 296 296 297 297 297 297 297 297 297 298 298 298 298 298 298 298 299 298 298 298 297 297 297 297 297 297 296 296 296 296 296 296 296 296 296 296 296 296 296 296 296 297 297 297 297 297 297 298 299 299 300 300
296 296 297 297 297 297 297 298 298 297 297 297 296 295 295 295 295 296 296 296 296 297 296 297 297 297 298 298 298 298 298 298 297 298 298 298 298 299 299 298 297 297 296 295 295 295 295 295 295 296 295 295 295 295 295 296 296 296 296 296 296 296 296 296 296 296 296 296 295 295 295 295 295 295 295 294 294 294 294 294 295 295 295 295 295 295 296 296 296 296 296 296 296 296 296 297 297
294 295 295 295 296 296 296 297 297 297 296 296 296 296 296 296 296 295 296 296 296 297 296 296 296 296 297 298 298 297 297 297 297 297 297 297 298 298 298 297 297 296 295 295 294 294 294 294 294 294 294 294 294 294 294 294 294 294 294 294 294 295 295 295 294 294 294 294 294 294 293 293 293 293 293 293 293 293 293 293 293 294 294 294 294 294 295 295 295 295 295 295 295 295 296 296 296
292 293 293 294 295 294 294 295 295 296 296 296 296 295 295 295 295 295 296 296 295 295 295 295 295 295 296 296 296 296 296 297 297 297 297 296 297 298 297 297 296 295 295 294 294 294 294 293 293 293 293 293 293 293 293 293 293 293 294 294 294 294 293 293 293 293 293 293 292 292 292 292 292 292 292 292 292 292 292 292 292 292 292 293 293 293 294 294 294 294 294 294 294 294 294 295 295
289 290 290 292 293 293 293 294 294 294 294 295 295 295 296 294 292 293 294 294 293 293 293 293 293 293 294 294 295 295 296 296 296 296 296 296 296 297 296 296 295 294 294 293 293 293 293 293 292 292 292 292 292 292 292 293 293 293 293 293 293 293 292 292 292 292 292 291 291 291 291 291 291 291 291 291 291 291 291 291 291 291 291 292 292 292 293 292 292 292 292 292 293 293 293 293 293
Wind_Speed
1 4 4 5 10 8 0 2 3 3 3 6 5 3 4 4 1 2 4 3 2 1 1 2 2 3 5 4 4 6 6 5 6 2 1 4 1 8 12 5 13 25 26 25 25 27 26 27 27 26 27 27 26 27 28 27 26 24 22 21 21 22 23 23 24 23 23 23 23 21 20 20 19 18 16 15 16 16 16 14 15 15 14 12 13 14 14 14 14 14 13 13 12 13 13 13 14
2 4 3 2 7 5 1 3 3 4 5 7 5 4 4 5 3 4 2 1 2 3 4 6 5 5 8 7 5 7 6 4 5 3 2 3 2 8 10 6 18 26 25 24 25 26 25 26 28 27 26 26 26 27 29 28 26 25 22 21 21 22 23 23 23 22 23 23 22 22 21 20 18 17 15 14 14 14 14 14 14 16 15 12 12 13 14 14 14 13 13 13 12 12 12 13 13
2 1 3 1 6 4 0 2 3 4 8 8 4 4 3 5 5 1 3 5 7 7 7 6 4 3 5 5 5 5 3 1 1 1 1 2 4 9 9 8 21 25 23 24 24 26 24 26 28 27 26 26 26 28 30 28 27 25 23 21 21 22 22 22 22 23 23 22 22 22 21 19 18 16 15 13 13 13 13 13 13 16 16 13 11 13 13 13 13 12 12 12 12 12 12 12 12
5 3 4 4 3 2 1 1 2 3 6 5 2 3 3 4 3 3 4 6 7 6 4 3 2 1 3 4 2 3 3 1 2 1 1 4 4 9 9 10 23 24 22 23 24 24 24 27 29 28 27 26 26 28 30 29 28 26 25 22 21 22 22 21 22 23 23 22 21 22 21 19 18 16 15 13 12 12 12 12 12 14 16 14 11 12 13 12 12 11 11 11 11 11 11 12 12
5 5 6 5 2 1 2 1 1 4 4 1 1 3 3 2 4 4 5 6 5 4 3 3 1 1 3 3 0 1 1 1 2 1 1 5 6 9 9 14 23 23 22 22 23 23 23 27 28 28 28 27 27 28 29 28 28 26 25 24 22 22 22 21 22 23 22 22 21 22 22 19 18 16 14 13 11 11 11 11 11 11 14 16 11 11 12 12 11 11 11 11 10 11 10 11 12
4 7 7 6 3 1 2 1 3 6 3 2 1 2 3 3 4 5 7 4 3 3 3 5 4 2 3 0 2 2 4 2 1 1 1 6 9 9 10 18 23 22 23 21 22 21 22 28 27 27 26 26 27 29 29 28 28 27 26 25 23 22 22 22 22 23 23 22 21 21 21 19 18 16 14 13 12 11 10 10 10 10 12 16 13 10 10 11 11 11 10 10 10 10 10 11 12
4 4 4 5 3 0 1 3 5 6 2 2 0 1 1 3 4 5 6 4 2 3 3 5 5 5 2 1 2 1 4 4 3 2 1 8 11 9 12 20 22 22 22 21 21 19 22 28 28 26 25 24 24 27 29 28 28 27 26 25 23 22 22 22 23 23 23 23 22 21 20 19 17 16 14 13 12 10 10 9 9 9 10 15 16 12 10 9 11 11 10 10 10 9 10 11 11
4 1 1 1 2 0 2 4 5 4 1 1 1 1 1 3 4 5 6 4 3 3 3 6 5 4 0 1 2 3 3 6 5 2 3 9 11 11 16 21 22 22 22 21 20 18 23 28 27 26 25 23 23 26 27 27 27 27 27 26 24 23 23 23 23 24 24 23 22 22 20 19 17 16 14 13 12 10 9 8 8 8 9 12 16 16 12 10 10 11 11 9 9 10 10 11 10
2 1 1 1 2 2 3 4 4 3 2 0 2 3 1 3 5 6 6 4 3 4 4 6 4 3 3 4 2 4 4 9 5 2 6 9 11 14 18 21 22 23 21 20 19 19 24 28 27 25 25 23 23 25 27 26 26 27 28 27 25 24 24 24 24 24 24 23 22 22 20 20 18 16 15 13 12 10 9 8 7 8 9 9 12 16 13 10 10 9 10 10 10 9 10 10 9
2 2 1 1 2 4 6 6 4 1 2 2 3 4 2 3 6 6 7 6 4 4 4 4 2 3 6 5 1 3 5 9 3 4 7 8 11 15 18 20 21 22 20 19 19 19 24 28 27 25 25 24 23 24 26 27 25 27 30 29 26 24 25 25 25 25 24 23 22 21 21 20 19 17 15 14 12 10 9 8 7 8 9 8 10 16 14 10 10 9 10 10 10 10 9 9 8
1 1 0 1 4 6 7 6 5 2 1 1 2 3 1 2 5 6 7 5 3 4 4 3 1 5 6 3 2 4 7 7 3 3 6 8 11 15 17 19 20 20 20 19 19 19 24 27 26 25 24 24 23 23 25 26 26 28 31 30 27 25 26 26 25 24 23 22 21 21 20 20 19 17 15 14 13 11 9 7 6 8 9 8 10 16 15 10 9 9 9 9 9 9 9 8 7
1 1 0 3 4 4 3 3 5 4 2 2 2 2 1 1 3 6 7 6 5 6 4 4 3 4 4 1 2 3 7 8 4 1 5 8 11 14 16 18 19 19 19 19 19 19 23 25 25 24 24 23 22 22 23 25 27 30 32 30 27 26 27 27 26 25 24 23 22 21 20 20 19 18 16 14 13 11 9 7 6 8 9 8 9 14 16 12 9 7 7 7 8 9 9 8 8
1 2 2 2 2 2 1 2 3 4 4 4 3 3 3 2 3 5 6 7 8 7 3 4 2 3 3 2 1 2 5 6 5 1 5 7 10 13 14 16 17 18 18 19 20 21 22 24 24 22 23 21 20 22 23 24 27 30 31 29 27 26 28 29 28 26 25 24 22 20 19 20 19 18 17 14 13 11 9 7 6 7 8 8 8 11 14 15 11 8 7 7 7 8 8 9 9
0 1 2 1 0 1 2 2 2 5 5 2 3 4 4 3 3 4 3 7 9 7 2 3 1 2 2 2 2 3 5 5 3 1 5 7 9 12 13 15 16 17 17 18 20 22 22 22 22 20 20 19 19 21 23 25 26 28 29 28 26 25 27 28 28 28 26 25 22 20 20 19 19 19 18 15 13 11 9 7 6 7 7 7 7 8 11 15 15 10 10 9 8 7 7 9 9
0 1 0 1 1 1 3 2 1 4 4 3 5 6 5 3 3 4 5 8 8 4 3 1 2 2 1 3 2 4 6 4 1 2 5 7 8 10 12 14 16 16 17 18 19 22 22 22 21 19 20 19 19 19 21 26 27 27 26 25 24 24 25 26 28 28 27 25 23 21 20 20 20 20 18 16 14 12 9 7 6 6 6 7 8 7 8 13 16 14 13 13 10 7 6 9 10
0 0 0 2 3 3 3 3 2 2 4 5 6 7 6 5 5 4 4 4 5 2 4 4 2 1 2 3 4 6 9 5 2 4 6 9 9 10 12 13 15 15 17 19 19 20 23 25 24 21 21 21 19 18 20 25 27 25 24 23 23 24 24 25 27 27 26 25 23 22 21 20 19 19 19 17 15 13 10 8 6 6 6 7 7 7 8 9 12 12 12 15 14 9 7 9 10
1 2 2 4 4 4 3 4 4 2 2 5 7 8 7 5 6 4 2 3 6 3 4 8 3 1 2 2 3 6 7 3 3 6 8 9 10 11 12 13 14 15 16 18 19 19 21 25 25 23 22 21 19 18 20 23 25 25 23 22 22 22 22 24 26 26 26 25 23 22 21 20 19 19 19 18 16 14 11 9 7 5 5 6 7 7 8 8 9 8 8 13 16 13 11 11 10
2 4 5 6 6 4 3 5 3 2 2 3 7 9 9 6 5 5 3 5 6 5 6 7 7 5 3 1 2 5 3 1 4 7 10 10 11 11 13 13 14 15 15 17 19 20 22 24 25 24 24 24 20 20 21 20 23 24 22 22 21 20 21 22 24 24 24 24 23 22 21 19 18 19 19 18 17 14 12 10 7 5 4 5 7 6 6 7 8 8 8 9 12 13 13 11 11
4 4 5 7 5 1 1 1 2 4 4 2 6 7 8 7 4 4 5 7 7 8 9 6 9 9 5 3 2 3 3 4 5 8 10 10 11 11 12 14 13 14 14 17 19 20 22 23 24 23 24 26 23 22 22 20 21 22 20 20 20 20 21 21 21 22 22 21 21 21 19 16 17 19 19 18 17 14 12 11 8 5 4 4 6 5 5 5 6 6 6 7 7 8 8 7 10
4 3 7 5 1 1 4 5 5 7 7 4 4 3 7 7 2 3 5 8 8 10 10 6 9 8 4 3 4 4 6 7 6 8 9 10 12 12 13 14 13 14 14 16 17 20 22 21 21 22 23 26 25 23 23 21 21 20 18 18 18 19 20 20 20 21 19 19 20 20 19 17 17 19 19 18 17 15 13 11 8 6 4 4 6 6 5 4 4 4 4 4 4 4 5 5 6
3 3 6 0 3 2 3 7 7 9 8 6 5 2 5 4 1 4 5 7 9 9 9 7 7 6 4 3 5 6 7 9 7 7 10 11 11 12 13 13 13 14 14 16 17 20 22 21 22 22 23 25 25 24 23 22 21 20 18 18 18 18 18 17 18 19 18 18 18 17 17 18 18 18 19 20 18 16 14 12 9 8 6 5 6 6 6 5 5 5 4 4 4 4 5 4 4
2 4 2 3 3 3 3 7 7 8 7 6 5 3 4 4 3 7 8 10 7 2 1 2 4 4 4 2 3 6 7 10 10 10 11 12 13 14 14 13 12 12 13 15 17 19 20 22 23 23 22 23 24 24 23 21 22 21 19 20 20 18 17 17 17 18 17 18 19 17 17 18 18 17 17 18 18 16 15 13 11 9 8 7 7 7 7 6 6 6 6 5 5 5 5 4 4
3 3 1 3 2 3 5 7 6 6 6 6 5 5 6 6 6 7 10 13 8 3 5 4 1 1 1 2 2 6 8 9 11 13 14 13 14 14 14 14 12 13 13 14 16 17 20 23 23 23 23 22 23 23 20 20 21 21 20 20 21 20 18 18 18 17 16 16 18 18 19 19 18 16 16 17 18 18 17 14 12 11 9 9 8 8 7 7 6 6 6 6 6 5 5 5 4
4 2 1 2 3 4 5 6 7 6 6 7 5 6 7 8 7 6 9 12 10 7 4 2 2 3 1 2 4 6 8 10 11 13 14 14 15 15 15 16 14 14 14 14 15 17 20 23 24 25 25 24 23 21 18 19 20 18 18 18 19 20 18 17 16 16 17 17 17 17 19 20 19 18 17 18 19 19 18 15 14 12 11 10 8 7 7 7 7 6 6 6 5 5 5 5 5
4 3 2 3 3 4 4 6 8 8 8 5 5 9 10 10 7 8 12 13 10 7 7 5 3 2 2 3 5 6 6 9 11 13 13 12 14 14 14 15 15 16 16 15 15 16 19 22 24 26 25 26 26 23 20 20 20 18 17 17 17 18 18 17 17 17 17 18 18 18 18 19 19 19 19 19 19 20 19 15 14 13 12 11 10 8 7 7 7 7 6 6 6 6 6 6 6
2 2 3 5 6 7 6 7 6 7 6 3 8 12 12 8 5 10 13 13 12 8 8 8 5 5 5 5 6 5 5 6 9 11 12 12 12 13 13 14 15 17 18 16 16 16 17 21 24 25 24 25 26 25 22 22 21 19 19 19 18 19 17 17 17 18 18 18 19 19 19 19 19 19 20 20 20 21 20 16 15 15 14 13 12 11 9 7 7 7 6 6 6 6 6 6 6
1 2 5 7 8 7 5 7 7 6 6 6 11 15 14 6 4 9 5 4 8 9 10 9 8 8 6 6 6 6 6 6 9 8 8 9 10 12 14 15 15 17 17 16 17 17 16 18 22 23 22 23 25 26 25 25 22 19 19 19 18 19 19 18 18 19 18 18 18 18 18 19 19 19 20 20 19 21 21 19 17 16 17 17 16 15 14 11 9 8 7 7 7 7 7 7 7
1 2 6 7 6 7 6 9 8 5 5 8 10 14 15 7 7 11 4 1 5 6 9 10 10 11 8 8 8 7 7 8 11 8 7 8 10 13 14 14 16 17 17 18 19 18 17 19 21 21 21 23 25 26 27 27 23 19 17 17 19 19 19 20 20 20 19 18 18 18 18 17 17 18 20 20 19 20 20 19 18 18 20 19 18 17 17 16 12 11 10 9 9 8 8 7 7
1 2 6 6 5 6 6 6 5 5 4 3 4 11 11 8 9 11 8 8 10 10 11 11 12 12 11 10 9 9 9 11 11 10 11 12 12 14 15 16 18 18 18 20 19 18 20 21 23 23 22 23 25 24 25 26 23 20 17 16 20 20 19 19 19 19 18 18 18 18 18 19 19 18 19 20 19 19 19 18 18 19 21 20 19 18 18 18 16 14 14 13 11 9 9 8 7
2 3 3 5 6 4 1 2 1 5 3 3 4 7 3 6 5 5 5 6 8 12 14 13 13 12 11 10 8 9 10 12 12 12 16 18 16 15 16 17 19 20 17 17 19 21 22 23 26 27 25 25 26 24 23 25 24 22 21 18 19 21 19 19 19 18 17 17 18 19 18 18 20 20 20 21 20 21 20 17 16 18 19 19 20 19 18 19 17 16 16 14 12 10 10 9 8
2 3 2 2 4 1 3 1 2 4 1 2 6 7 3 2 2 2 3 3 3 9 12 12 12 11 11 10 10 10 9 12 14 15 17 20 20 19 18 17 17 20 19 17 19 21 22 25 27 27 27 25 26 27 25 27 25 21 22 21 20 21 20 19 18 17 16 16 17 19 20 19 20 21 22 22 23 23 21 18 17 16 18 18 18 19 19 18 16 14 14 13 11 10 10 9 9
1 4 3 1 2 1 1 1 2 2 1 3 6 6 4 3 5 5 4 1 1 7 10 9 9 9 10 10 10 10 9 10 12 14 15 17 19 19 19 18 17 18 21 20 18 18 20 26 28 26 27 26 23 26 27 29 26 20 19 20 20 20 19 19 18 16 17 17 16 18 19 21 21 21 20 20 22 23 21 20 19 15 15 18 19 19 19 16 14 12 12 12 11 11 10 9 9
1 3 5 3 3 4 2 2 1 1 1 4 8 7 5 2 1 4 3 1 1 6 9 8 8 8 8 9 8 9 9 9 9 11 12 12 15 18 19 20 19 18 20 22 20 19 20 23 25 22 25 28 27 26 26 29 29 23 20 19 19 19 19 19 18 17 16 17 18 18 18 19 21 21 20 21 22 22 19 19 20 17 16 19 19 18 17 15 13 13 13 13 13 11 11 10 10
2 2 4 4 5 6 3 2 3 1 2 5 9 11 12 9 3 1 2 1 2 5 7 8 7 7 7 8 8 9 9 10 9 8 8 9 12 16 18 19 20 19 19 20 21 20 20 19 19 17 19 26 28 29 27 27 29 27 23 20 18 18 19 19 18 17 17 17 17 18 19 18 20 23 23 23 23 22 19 19 20 19 20 20 19 18 16 14 14 14 14 13 13 12 11 11 10
4 4 4 4 5 7 7 4 1 2 3 6 9 12 15 15 12 10 8 6 8 9 8 8 8 9 8 8 9 9 10 11 10 9 8 11 13 14 15 17 18 20 20 18 18 18 18 18 19 19 20 23 25 28 30 29 29 28 25 22 19 17 19 20 19 17 17 18 18 17 17 17 18 21 22 23 23 20 19 21 22 22 21 20 20 19 16 15 15 15 14 13 13 12 12 10 9
5 6 7 7 7 7 5 3 1 1 6 10 12 14 16 15 15 14 11 10 14 14 10 9 10 10 10 9 9 9 11 12 10 10 10 10 12 13 14 16 17 19 21 20 18 17 17 18 18 20 22 24 24 25 29 29 28 27 24 23 21 19 20 21 21 18 17 18 18 17 16 17 17 19 20 20 21 20 18 19 19 19 21 20 20 20 17 17 16 16 16 15 14 13 12 12 10
3 5 6 8 9 8 3 2 3 2 5 12 12 15 17 15 14 15 12 10 14 15 13 13 12 12 11 12 13 12 12 11 10 11 11 12 14 15 15 16 16 18 21 22 21 21 20 19 19 20 21 24 26 26 27 27 26 25 25 25 23 21 22 21 20 19 19 19 20 20 19 20 18 17 19 19 21 22 21 21 19 19 21 21 21 20 18 18 17 16 16 15 15 13 12 12 11
3 4 6 7 8 9 5 5 6 4 4 11 10 12 17 14 13 14 12 11 14 15 15 15 15 14 12 13 15 14 12 10 10 10 11 14 15 16 16 15 16 18 21 24 25 25 24 22 22 22 21 23 26 28 27 27 27 26 25 25 23 21 22 22 20 19 20 21 22 23 23 24 22 19 20 20 22 24 23 23 22 19 18 19 20 20 19 19 18 17 16 15 15 14 13 12 11
4 4 6 7 5 7 7 6 5 4 5 8 7 10 15 13 12 14 14 13 14 14 16 16 15 15 13 13 13 14 13 12 12 11 11 13 14 16 15 13 15 18 21 24 26 28 27 25 25 24 24 24 24 26 27 27 27 26 24 23 23 21 18 19 20 19 17 18 18 20 20 21 23 22 22 22 22 23 24 25 25 21 18 18 19 20 21 20 18 17 18 17 15 13 14 15 14
6 5 6 7 4 4 5 2 0 3 6 8 7 9 13 12 11 15 15 15 15 14 17 17 15 15 15 13 11 11 14 14 13 13 12 12 12 13 13 14 17 20 22 25 26 28 28 28 28 27 27 26 25 25 27 27 25 24 22 21 22 20 16 15 17 16 15 13 13 14 14 14 15 16 19 20 20 21 23 25 27 25 21 19 20 20 20 19 18 19 20 20 18 16 15 15 15
7 9 9 9 6 4 5 2 2 4 8 9 8 9 12 10 9 12 11 12 15 13 14 16 15 15 14 12 11 11 13 13 13 15 14 12 11 13 14 15 18 21 23 26 28 29 29 29 29 29 29 28 27 26 27 27 24 21 19 17 16 16 15 15 16 15 14 13 11 11 10 9 8 8 10 12 13 14 15 18 21 21 19 19 21 22 21 20 21 23 23 22 22 20 17 15 14
6 11 13 12 10 5 4 3 3 6 7 6 6 7 10 6 7 8 5 6 11 10 11 15 14 13 12 11 12 12 13 13 14 15 15 13 13 13 13 12 15 18 22 26 29 29 29 28 28 29 29 29 29 28 28 28 26 23 22 21 20 21 20 17 18 18 17 15 13 10 8 6 5 5 5 5 5 6 6 7 10 12 13 14 16 18 19 19 21 24 26 26 24 22 18 15 13
7 5 9 12 12 7 5 5 4 5 5 0 4 6 10 8 5 8 5 5 11 9 10 13 10 9 10 10 11 11 12 13 13 15 15 14 13 12 11 12 13 15 19 23 25 25 26 25 26 27 28 29 30 29 29 30 28 27 26 24 25 26 24 19 18 18 16 14 12 10 8 6 4 3 2 2 2 3 2 2 2 3 4 6 7 7 9 9 11 12 15 18 20 21 19 14 11
5 4 5 8 9 9 9 8 7 6 5 1 3 6 9 12 10 6 9 8 11 10 13 12 8 9 11 11 11 11 11 11 11 12 14 14 14 14 14 12 12 13 16 20 20 21 22 22 23 24 26 28 29 30 32 33 32 31 29 26 26 27 25 23 21 18 16 14 13 13 12 10 8 6 4 3 2 2 3 3 5 5 5 5 4 3 3 5 7 6 4 6 9 11 12 11 9
2 5 3 3 4 6 7 7 7 6 6 5 7 7 7 11 9 5 9 10 10 10 14 13 11 12 12 11 11 11 11 11 11 11 12 13 14 16 15 12 12 14 15 17 18 18 19 20 21 21 22 25 28 31 33 34 36 35 33 30 27 25 24 25 23 20 19 18 17 15 14 13 11 8 6 5 5 4 3 3 4 6 6 6 7 6 4 4 6 6 5 3 3 3 3 4 5
2 7 4 4 3 2 5 6 6 5 8 9 11 11 8 12 10 4 7 8 8 10 11 12 13 11 9 11 12 11 10 9 10 12 12 13 14 14 12 9 10 13 15 17 18 18 18 19 20 20 21 23 27 30 31 32 35 36 36 34 31 28 27 27 25 22 21 20 19 17 15 13 12 10 8 6 6 6 5 5 5 4 4 4 5 5 4 3 3 4 5 5 4 3 2 2 2
5 5 2 1 3 3 3 4 4 6 9 12 17 17 12 10 10 6 5 4 6 9 9 10 11 9 10 12 12 10 10 9 9 10 11 12 11 8 9 9 9 12 15 16 16 18 18 19 20 21 22 23 25 27 27 28 32 33 33 37 37 33 31 29 27 25 23 21 19 18 16 14 13 11 10 8 7 6 5 5 5 5 4 4 4 4 5 4 2 2 3 3 3 3 2 2 2
3 3 2 4 5 4 3 4 6 8 10 13 18 18 16 13 9 8 6 3 6 10 9 10 10 11 12 9 8 9 9 9 8 8 9 9 8 7 9 11 10 12 14 15 17 18 19 19 21 21 22 23 23 24 24 25 28 28 27 34 40 38 36 34 31 28 24 22 20 18 17 15 13 12 11 9 8 7 6 6 5 5 5 5 4 3 3 3 3 2 2 2 2 1 1 1 1
5 5 4 6 7 5 6 6 7 9 10 11 12 11 12 13 12 16 16 10 11 11 9 11 13 13 11 8 8 8 6 7 7 7 7 8 8 8 10 12 12 13 13 15 17 18 19 19 21 22 22 23 23 23 24 23 24 25 24 28 34 38 38 36 34 31 27 24 22 20 18 16 15 13 12 11 10 9 9 8 7 7 6 5 5 4 4 4 3 2 2 1 1 1 1 1 1
10 8 7 9 7 7 10 8 7 9 9 10 10 8 8 8 11 21 26 20 17 17 15 15 14 13 13 10 6 4 4 5 6 6 7 7 8 7 9 11 11 12 13 15 16 18 20 19 20 23 22 22 23 23 23 23 21 23 24 24 26 31 33 33 33 32 30 27 25 22 20 18 17 17 15 14 14 12 12 12 11 10 9 8 7 6 5 5 5 5 5 4 4 4 4 4 2
11 10 8 10 8 8 9 7 7 7 6 5 6 7 7 6 5 13 18 12 9 16 19 16 13 13 14 11 6 4 5 5 4 6 6 6 7 7 8 9 8 10 12 13 14 16 19 18 19 23 24 23 24 24 24 23 23 24 25 25 25 26 28 29 30 30 30 29 27 25 23 21 20 19 18 17 17 16 16 16 15 15 14 12 11 10 9 8 7 8 8 7 7 7 6 6 5
9 9 9 12 11 10 10 9 8 6 5 4 5 5 6 4 5 5 7 2 3 9 15 14 13 13 12 11 10 10 7 5 4 5 6 7 7 8 9 8 8 8 9 10 11 13 16 17 18 20 22 23 23 24 24 25 25 25 25 26 26 27 28 28 29 29 28 28 27 26 26 24 23 21 20 20 19 19 18 18 17 17 16 15 14 13 13 12 11 11 10 9 9 9 8 7 7
5 8 11 8 5 8 11 13 10 7 9 8 7 9 9 7 9 10 12 11 7 10 10 12 11 10 10 10 11 12 7 5 5 5 7 7 7 9 10 10 10 10 10 10 10 10 13 16 17 18 19 21 22 24 24 25 26 26 26 26 26 26 27 27 27 27 26 26 25 25 25 25 24 24 23 22 21 20 19 19 18 18 17 16 16 15 15 14 14 13 13 12 11 10 9 8 8
6 7 7 3 2 3 7 10 10 10 12 10 11 17 15 10 10 9 14 20 16 8 6 7 9 8 9 9 11 12 7 4 5 6 6 7 7 9 10 11 11 12 12 11 11 13 15 16 17 18 18 20 22 24 25 26 27 28 28 28 28 27 27 27 27 27 27 27 26 26 25 25 24 24 23 22 21 20 19 18 18 17 17 16 16 15 14 14 14 14 14 14 13 12 11 10 9
12 8 2 2 4 4 5 8 9 11 12 9 13 19 16 12 12 10 12 17 16 9 5 5 8 10 11 9 10 10 6 4 4 5 5 5 7 9 11 11 12 13 13 13 14 15 17 18 18 19 19 21 23 25 26 27 29 30 30 31 32 32 32 32 32 31 31 30 29 28 27 25 24 23 21 21 20 19 18 17 16 16 15 15 15 14 13 13 13 13 14 14 13 13 13 12 11
8 5 3 5 7 6 6 7 6 9 12 11 13 14 11 10 11 14 18 18 18 15 9 5 8 12 12 7 5 6 5 5 5 5 5 6 7 9 11 12 13 14 13 15 16 17 18 19 21 23 23 24 26 27 29 30 31 33 34 34 35 35 35 35 34 32 31 30 29 27 26 24 23 21 20 19 18 17 17 16 16 15 15 15 14 14 14 13 13 13 13 13 13 12 12 12 12
3 4 5 6 5 5 6 7 5 6 9 9 10 11 10 6 3 6 12 12 9 8 8 7 7 10 11 8 6 6 5 5 6 5 6 6 7 8 10 11 12 13 13 14 16 17 18 20 21 24 26 28 28 29 31 33 33 34 35 35 35 34 34 33 32 30 30 29 27 26 25 23 22 21 19 18 18 17 16 16 16 15 15 15 15 15 14 14 13 13 13 13 12 12 12 12 12
4 5 6 6 6 5 7 8 6 6 7 7 9 11 7 2 3 4 5 6 6 7 7 7 8 9 10 9 7 7 6 6 6 6 6 6 7 8 9 10 11 12 13 13 14 16 18 19 21 23 25 27 29 31 32 34 34 34 35 35 34 33 32 31 30 30 29 28 27 26 25 24 23 22 20 19 18 17 17 16 16 16 16 16 15 15 14 14 13 13 13 13 12 12 12 12 12
Wind_Direction
294 222 264 324 341 350 353 314 233 193 233 223 201 194 179 153 20 164 145 149 180 100 101 334 340 261 251 298 320 328 317 264 324 313 246 26 12 168 170 174 164 162 160 163 163 168 169 170 170 170 173 171 167 165 165 164 163 163 161 155 154 155 158 159 157 155 153 159 158 150 147 139 134 127 120 113 109 103 99 100 119 124 112 109 111 111 114 116 116 117 120 118 113 108 105 104 107
311 252 256 332 7 8 323 322 243 183 207 221 201 190 139 129 190 199 155 42 345 359 313 298 289 256 260 291 301 300 276 232 342 346 20 34 138 167 175 171 166 163 161 163 163 167 168 172 172 169 171 172 169 167 167 167 166 166 164 159 156 158 159 159 157 155 155 159 159 154 150 144 139 133 126 121 115 109 106 101 112 127 122 118 119 115 114 116 117 119 119 119 117 113 110 107 110
36 285 225 171 37 35 285 330 255 204 207 218 190 159 121 153 172 146 8 346 334 320 303 284 264 246 235 243 240 259 251 133 36 347 35 131 158 172 178 166 168 164 162 164 163 166 168 174 175 171 171 173 171 170 170 170 170 169 168 165 159 159 161 160 159 159 159 160 161 158 152 149 144 139 133 128 123 115 111 107 109 127 132 125 124 122 117 118 117 120 122 121 120 117 115 113 114
57 59 158 151 52 28 65 13 278 248 220 215 160 138 169 163 106 46 356 340 331 319 305 281 243 167 240 240 187 244 252 85 90 38 68 161 168 164 167 164 167 166 164 165 165 166 169 175 176 173 173 174 175 173 174 173 173 172 171 171 164 162 163 164 164 163 163 162 163 161 155 153 149 146 142 136 133 124 115 112 110 124 137 130 127 130 120 120 119 119 125 123 121 117 113 114 117
66 73 131 137 102 60 88 66 274 253 231 202 98 130 151 123 54 14 349 350 1 7 2 326 306 119 262 284 348 282 291 58 93 58 158 164 162 159 166 165 166 168 167 167 167 166 171 176 174 174 175 178 180 178 178 178 177 176 174 175 169 167 167 168 168 167 167 165 165 163 159 157 155 152 150 146 140 132 120 116 114 118 136 136 133 136 128 124 123 122 125 126 125 119 113 117 123
102 86 98 101 94 128 130 202 218 233 228 58 36 112 113 65 28 352 346 5 56 51 27 357 342 288 247 213 264 313 19 347 1 63 180 166 162 165 170 166 168 170 167 168 169 167 173 176 172 173 175 178 181 181 181 180 181 180 177 178 174 170 170 170 171 170 169 167 166 164 162 162 161 158 156 154 147 140 127 119 121 118 133 140 137 136 136 133 130 131 127 130 130 123 119 123 128
172 109 79 88 86 68 161 222 223 231 218 100 89 118 101 31 8 338 350 16 51 54 28 9 351 292 252 118 242 119 41 348 333 17 133 159 158 163 166 166 169 171 168 168 170 170 174 176 173 174 176 177 179 181 183 183 184 184 180 181 176 171 173 173 173 172 171 169 167 165 167 166 164 163 161 160 153 146 136 124 126 126 133 144 147 141 140 144 142 141 133 135 135 126 128 131 132
186 139 349 121 110 89 184 221 225 226 210 114 264 261 320 0 349 329 345 358 357 2 345 1 351 286 45 346 266 113 55 353 326 310 137 154 157 162 164 167 169 170 170 169 171 171 176 178 177 178 178 178 179 180 183 184 185 186 185 185 178 173 176 177 176 175 173 170 169 169 171 171 168 168 167 165 161 152 142 129 126 132 136 146 156 152 145 153 153 149 139 135 134 128 135 139 137
125 49 215 172 136 188 209 217 224 224 211 213 261 254 312 337 331 323 324 331 330 321 332 360 334 285 1 318 283 108 36 3 351 152 142 156 159 161 163 168 170 169 170 169 171 174 178 179 179 182 181 180 181 181 183 184 185 187 188 188 182 177 179 179 178 176 175 174 173 174 175 175 172 171 172 168 165 158 145 134 127 134 144 142 155 160 152 156 158 153 148 138 138 138 141 144 140
44 4 185 134 153 205 222 217 215 227 201 186 248 267 293 314 319 313 309 321 321 318 348 359 277 312 341 317 323 90 11 7 34 133 146 158 160 163 165 169 170 170 171 170 174 178 178 178 181 184 183 182 183 185 187 186 186 187 189 190 184 181 181 181 180 177 177 177 177 177 176 177 175 173 173 171 169 162 152 140 129 132 146 138 146 160 156 160 164 157 157 150 149 148 147 147 143
40 13 348 193 193 213 225 222 215 208 162 160 233 264 299 323 314 303 297 304 311 313 336 355 334 337 326 310 45 62 20 9 38 127 153 154 160 164 165 168 170 173 173 173 177 179 177 178 182 185 186 186 187 192 193 192 190 187 188 188 184 183 183 182 181 180 180 180 180 178 176 177 175 174 173 172 170 166 159 142 131 132 141 138 142 159 159 159 163 162 163 159 159 154 152 152 147
138 145 63 206 209 221 227 236 232 224 185 193 203 158 137 348 303 288 286 288 303 303 323 16 0 326 315 9 49 46 33 11 7 135 163 152 159 164 166 169 171 175 177 178 180 180 179 179 182 186 191 190 194 199 197 194 190 187 187 186 185 185 185 183 181 182 184 185 182 178 177 178 176 175 174 175 173 170 164 144 130 132 134 134 141 161 168 166 159 166 175 170 172 166 160 159 156
194 152 151 193 219 211 186 266 247 239 230 208 187 145 162 199 253 259 276 282 280 286 334 51 352 308 319 6 54 29 36 16 354 179 173 163 161 165 169 171 173 177 180 182 182 181 180 180 181 184 191 195 202 201 192 188 186 185 184 184 186 187 187 185 182 182 186 188 185 180 179 179 178 178 178 179 178 175 168 149 131 130 128 125 132 157 174 177 162 154 171 174 180 180 174 170 166
216 159 182 172 125 189 172 246 234 238 245 178 159 154 175 204 208 206 229 264 259 266 343 79 289 291 313 331 94 56 34 29 346 236 190 179 165 168 171 174 177 178 185 187 184 181 179 179 179 181 188 192 193 188 180 179 182 183 183 185 188 188 188 188 186 184 186 190 188 183 181 181 181 181 183 185 183 181 174 157 137 130 125 116 119 142 165 173 166 160 170 174 179 184 193 190 180
178 172 206 169 172 190 184 214 214 242 244 159 171 165 176 210 180 187 205 242 259 280 321 123 190 278 355 350 5 11 348 346 294 219 195 185 171 173 172 175 180 183 191 190 186 185 183 179 175 176 180 178 175 175 174 175 179 182 184 187 189 188 187 189 188 186 187 191 192 186 184 183 183 184 186 189 186 186 181 166 147 133 127 115 110 126 149 168 176 184 187 187 189 181 193 201 192
239 156 128 214 203 194 189 200 156 240 238 181 179 162 182 206 185 225 205 214 269 297 285 248 195 292 324 335 337 336 325 317 220 199 192 187 177 174 174 179 184 189 195 192 189 189 187 184 178 175 173 171 171 175 176 174 178 183 187 189 190 188 187 188 186 186 189 192 193 188 189 186 183 186 188 190 190 190 187 174 159 138 133 124 112 118 133 156 176 189 193 193 196 190 197 209 202
220 190 199 226 209 198 180 181 179 235 263 171 173 172 198 208 179 207 132 173 254 262 257 261 263 267 257 301 327 316 317 310 206 196 191 187 181 179 180 182 186 193 200 197 192 189 187 185 181 175 173 173 172 178 180 179 183 184 186 189 191 190 188 190 187 186 190 193 195 192 191 187 184 188 188 190 190 192 190 180 168 149 140 135 123 120 129 137 148 155 165 185 198 204 212 222 218
199 194 210 226 214 205 178 191 202 308 323 173 185 197 209 213 183 181 168 196 234 263 252 250 263 249 221 174 297 299 301 225 228 202 191 190 188 188 187 186 189 193 200 202 197 192 187 185 181 178 177 178 176 179 180 183 188 186 187 189 190 189 187 190 188 188 191 194 198 196 191 188 187 189 189 189 190 192 193 186 176 163 152 148 138 128 133 134 134 133 133 159 186 201 212 224 226
209 190 218 229 222 219 56 256 295 335 317 250 204 207 217 223 200 176 216 221 207 249 253 234 257 251 215 191 226 270 193 182 231 211 195 198 196 195 195 191 193 197 200 203 201 195 191 189 186 183 182 182 182 182 181 185 190 189 190 189 188 190 188 189 190 191 193 193 197 196 193 192 191 192 190 190 191 192 195 191 183 177 169 161 154 143 143 142 139 139 134 142 157 177 196 209 218
206 202 231 225 324 353 37 27 13 1 347 311 245 203 221 233 216 176 239 248 217 233 245 230 250 252 228 206 198 214 181 175 220 222 207 209 205 203 204 197 197 202 205 206 203 199 195 193 189 188 189 187 185 186 186 188 191 190 192 192 189 190 189 189 192 192 192 194 197 195 195 195 194 195 192 192 193 192 195 195 191 192 191 183 172 163 168 172 163 163 160 156 154 162 181 195 206
187 216 240 159 15 284 48 35 20 5 1 341 311 243 232 261 303 229 244 257 239 236 239 226 232 247 250 211 193 203 184 178 200 219 216 219 215 211 209 204 205 205 207 208 206 203 199 197 194 191 195 192 188 187 188 190 192 192 193 195 193 192 191 189 192 194 193 194 195 194 197 200 199 195 192 195 194 190 193 195 195 194 194 199 188 179 187 193 187 188 193 182 184 194 195 199 199
205 224 275 29 5 267 22 23 14 1 355 356 336 294 295 328 292 248 247 246 249 258 225 218 222 243 263 238 205 207 195 192 195 202 212 221 224 219 211 208 212 212 210 211 210 207 203 203 201 196 196 194 193 192 189 191 193 193 195 196 196 196 194 194 195 197 197 197 196 196 201 208 209 203 199 198 191 189 197 196 194 193 194 202 197 192 197 198 195 195 201 199 201 210 209 211 209
238 222 354 35 34 300 329 354 356 2 341 334 327 312 323 313 279 261 251 248 263 6 62 73 110 155 287 296 249 218 209 204 202 202 205 212 223 224 216 212 213 212 212 213 213 212 209 208 203 199 199 196 196 197 192 192 194 196 200 201 201 199 199 200 199 200 200 199 201 201 203 209 214 210 206 203 195 193 199 199 198 199 199 202 201 200 203 202 203 206 208 210 213 220 224 226 228
248 238 11 351 17 306 314 335 325 334 312 302 305 300 293 275 277 280 257 258 272 301 339 58 118 125 127 268 260 246 226 214 212 211 209 213 220 221 218 217 217 215 216 214 212 212 215 215 208 203 204 201 199 198 195 195 197 198 201 203 205 204 202 203 203 203 203 202 203 206 206 209 211 208 205 205 200 199 203 205 203 205 208 208 208 204 208 212 211 216 219 221 226 231 236 239 243
236 253 354 322 324 288 291 310 302 306 294 288 280 272 268 261 272 274 260 261 267 278 292 287 241 195 184 223 246 260 248 228 219 213 215 219 222 222 219 220 220 219 220 218 213 211 215 218 213 208 207 205 203 200 199 201 202 203 204 203 206 207 205 204 207 207 208 208 206 208 209 208 210 209 208 207 205 206 209 208 205 210 211 208 212 209 208 215 217 223 226 230 235 239 244 246 251
217 276 336 301 293 289 293 288 276 280 276 286 280 269 264 251 263 271 253 247 251 248 261 266 251 236 222 215 223 236 242 238 225 211 212 216 221 225 223 222 222 221 221 220 218 215 216 218 213 209 209 209 208 205 203 203 205 206 208 208 208 211 211 208 209 212 213 212 209 211 212 210 209 208 209 209 208 207 208 210 212 214 214 212 219 225 223 221 223 230 231 237 243 247 251 251 255
146 280 297 278 283 289 283 272 257 256 259 257 264 267 266 241 216 262 242 202 235 232 242 250 246 247 235 222 222 225 227 230 232 225 215 209 212 221 224 222 220 225 226 224 224 221 219 217 211 209 210 208 208 207 206 208 209 208 209 211 212 213 216 213 212 216 217 215 213 213 215 214 213 213 215 212 209 212 213 213 213 214 221 223 228 235 239 237 232 233 235 238 245 250 253 254 256
188 283 281 260 274 282 257 258 254 238 251 240 241 264 267 233 218 248 258 243 235 222 237 241 244 249 239 230 227 226 230 229 229 228 222 213 208 215 223 222 218 222 225 227 229 226 224 220 216 216 213 209 209 211 212 213 214 212 210 212 215 216 217 217 217 219 220 218 215 214 215 214 215 218 219 215 211 217 217 212 213 220 226 227 230 236 242 245 242 241 242 241 244 249 251 253 254
245 276 283 265 265 274 260 267 252 213 236 201 213 276 268 211 216 240 244 249 242 234 240 239 239 245 242 236 228 226 229 228 221 217 225 226 219 219 226 230 226 222 224 228 227 228 230 227 224 224 220 215 215 217 215 215 217 217 215 214 217 218 216 216 216 218 218 218 216 215 217 217 217 218 218 216 213 215 215 214 220 227 228 228 230 232 236 244 248 249 251 249 247 246 246 250 251
246 222 267 292 275 252 225 336 246 202 221 166 195 276 274 146 179 232 251 257 243 240 244 243 240 242 245 241 235 232 226 226 222 219 227 232 230 229 234 240 235 231 230 229 227 228 229 228 228 227 226 222 220 221 218 218 221 220 218 218 219 219 216 214 214 215 215 214 214 215 216 218 219 218 219 221 218 215 211 214 221 226 230 230 229 230 234 243 248 248 250 250 246 243 244 247 250
270 240 200 286 284 184 108 87 183 187 165 169 209 252 259 80 36 2 337 332 270 251 252 251 247 246 249 246 246 245 231 227 227 225 230 234 235 234 237 243 240 237 236 233 230 230 227 226 227 224 224 224 221 223 223 220 220 218 217 217 216 217 216 215 215 215 214 212 212 215 216 220 222 221 222 224 223 219 215 219 223 225 230 228 228 231 235 242 245 243 243 243 242 242 242 245 250
311 273 238 213 252 257 134 131 199 235 47 162 204 249 268 305 339 359 354 350 222 255 261 262 258 256 260 259 257 258 254 243 232 231 234 237 238 237 237 241 242 240 237 236 232 227 228 230 228 223 222 227 227 225 224 220 217 212 212 215 215 216 215 216 216 217 216 213 213 216 219 223 223 221 224 225 225 221 220 225 223 219 225 228 230 232 233 236 238 240 238 233 235 240 242 245 251
155 246 270 272 261 287 322 102 126 283 36 188 214 251 276 243 32 18 4 28 213 258 262 266 265 262 266 268 266 265 267 264 251 242 238 241 246 246 243 240 240 242 238 236 234 230 231 233 231 227 226 230 233 231 226 219 217 213 210 210 211 215 217 216 216 218 219 218 218 218 221 226 226 224 226 228 229 227 224 226 224 222 228 233 235 233 232 232 233 235 235 230 229 234 241 245 249
184 200 261 265 253 275 280 144 90 93 212 225 228 245 261 255 240 291 310 342 287 263 263 269 271 269 266 268 271 269 266 264 260 250 233 240 254 256 255 249 243 243 240 235 233 232 230 226 225 225 230 233 233 231 228 221 220 218 216 215 211 214 218 217 216 218 219 218 219 220 221 227 231 229 228 228 232 232 229 231 234 234 235 237 238 234 232 231 231 230 229 229 228 229 235 239 244
282 262 260 265 244 246 251 237 62 35 251 252 247 249 259 261 259 255 250 257 265 261 260 267 271 273 271 264 265 268 269 266 262 257 248 248 253 255 258 260 254 247 244 236 228 225 223 220 219 221 231 236 231 229 229 227 223 221 221 219 216 217 217 216 218 219 220 219 219 221 221 225 227 226 225 226 229 230 233 238 238 235 234 235 237 236 234 231 229 227 225 226 228 229 232 237 245
284 277 272 278 271 251 245 246 249 322 278 265 255 258 262 262 264 261 251 249 261 264 263 265 266 267 268 265 262 259 262 266 265 262 265 263 257 254 254 257 259 254 249 243 232 226 223 222 223 223 228 231 229 226 225 224 221 220 221 220 218 219 217 215 217 220 223 224 223 222 224 225 225 226 224 223 225 225 227 233 231 228 231 234 235 234 230 225 222 222 223 224 225 228 234 242 248
274 277 271 264 269 266 242 224 219 166 269 266 254 259 265 264 266 267 262 253 257 263 262 261 260 259 257 259 262 261 260 264 265 263 266 271 266 262 259 252 252 251 249 247 241 236 232 228 230 229 226 225 224 223 222 220 217 215 217 219 219 220 221 219 218 222 225 226 227 227 226 228 228 228 227 225 229 231 231 233 232 230 232 233 232 229 224 222 221 221 222 224 223 224 231 236 237
253 259 266 260 258 261 243 234 235 176 238 269 270 271 270 266 262 264 267 257 253 258 258 255 256 256 253 252 258 262 265 263 262 262 259 261 263 261 258 249 243 241 243 246 245 243 239 234 234 234 231 227 223 222 221 220 219 215 214 215 215 215 218 219 217 217 220 222 226 228 228 230 229 226 225 225 228 231 231 232 232 231 231 231 230 228 224 222 222 220 219 221 223 225 228 227 225
245 242 260 265 254 260 253 240 246 217 235 269 286 282 276 271 259 256 258 254 250 248 249 252 253 254 254 251 252 255 260 264 263 265 257 251 253 256 250 239 235 235 238 244 245 245 241 235 235 234 234 233 229 223 219 219 220 216 213 211 209 207 206 209 209 208 209 211 214 219 221 224 224 223 222 224 226 227 229 231 231 230 227 228 230 230 227 224 223 221 219 219 219 222 227 229 226
230 225 249 258 236 251 263 242 198 234 239 267 301 297 281 273 254 251 250 245 247 241 241 250 251 252 256 255 255 254 257 263 265 265 263 254 249 249 242 232 233 232 233 237 240 241 240 237 235 233 233 232 229 224 217 217 216 211 210 208 205 202 194 191 193 191 191 190 190 195 198 201 206 211 214 216 218 222 228 231 232 231 225 225 228 228 225 221 220 221 220 220 219 217 220 226 225
220 214 233 252 244 236 257 301 357 271 245 250 282 296 279 258 230 246 247 233 243 243 240 248 249 249 256 257 257 256 254 257 260 263 263 257 250 246 238 230 230 228 228 231 234 237 239 238 236 234 233 230 226 222 214 211 209 202 194 185 179 170 160 162 163 159 164 167 161 157 161 168 174 181 190 198 203 208 214 220 223 224 224 226 228 229 229 228 227 224 221 221 221 219 220 220 215
244 220 221 241 260 259 254 287 308 287 266 226 232 275 282 254 187 229 248 227 242 236 230 243 245 245 249 253 252 245 242 244 248 254 258 256 252 249 239 224 222 225 227 230 232 234 235 236 233 230 228 225 223 219 210 206 203 195 182 167 161 152 144 149 152 149 149 152 152 145 144 148 155 168 175 177 188 191 187 195 204 207 212 218 221 226 231 235 236 230 226 225 222 219 222 220 212
270 216 199 228 253 252 230 241 234 261 292 142 174 252 285 286 232 213 199 237 252 237 232 239 235 238 242 243 246 241 235 235 239 244 250 253 251 248 240 224 218 223 229 230 231 229 228 229 229 226 222 219 218 213 205 200 194 189 183 175 170 162 152 148 150 150 147 145 142 135 137 144 147 171 191 183 212 234 222 205 204 193 197 205 208 211 218 236 245 237 230 226 219 215 215 214 213
270 102 155 210 230 232 221 225 225 240 285 339 184 235 275 280 266 196 171 227 256 250 251 248 226 226 237 239 242 245 241 232 233 240 244 247 245 242 240 230 220 222 228 230 230 228 223 222 222 219 215 213 211 204 198 196 190 185 181 174 167 164 157 151 149 147 145 145 143 136 135 138 141 148 148 143 171 232 250 253 261 274 287 289 293 285 254 257 271 271 243 220 214 211 207 205 212
268 96 124 183 205 227 210 214 232 242 261 255 221 219 251 269 266 152 166 221 244 246 256 258 244 231 231 241 242 243 247 239 233 237 241 243 241 237 236 233 226 224 225 225 226 226 221 216 213 209 207 205 200 194 190 190 189 185 179 171 161 159 156 151 148 146 142 142 143 142 141 140 140 141 138 136 142 154 167 183 215 242 260 275 284 286 276 262 269 278 278 260 241 217 208 214 221
118 111 109 99 128 184 189 215 231 222 238 244 226 210 225 264 264 195 187 221 229 240 249 250 251 244 229 238 243 240 244 244 238 237 239 244 243 237 232 229 224 222 220 218 217 218 215 209 203 197 196 195 191 187 184 184 183 179 176 171 160 154 152 148 146 145 145 144 141 140 142 141 140 140 140 142 144 142 142 145 154 173 196 220 230 229 229 232 249 269 283 293 290 265 257 274 258
112 131 151 157 177 154 171 221 215 224 237 233 227 216 214 253 267 242 223 220 228 244 250 242 245 249 241 237 239 242 244 244 240 238 240 244 243 234 226 221 210 207 210 208 206 207 205 200 193 188 187 187 184 184 185 184 179 174 172 171 165 158 157 153 148 148 149 148 144 142 142 141 138 138 140 142 141 137 132 134 138 141 147 162 178 191 212 230 245 258 257 265 277 275 269 274 276
149 203 240 265 239 184 193 213 201 232 242 229 228 219 215 236 257 262 255 218 238 252 253 252 246 241 243 241 235 239 243 247 247 242 241 239 231 218 215 212 196 191 194 193 195 196 194 192 186 181 180 182 182 183 185 184 180 176 173 170 167 165 164 162 158 157 157 155 150 146 143 141 137 134 133 132 130 129 129 128 130 134 135 139 146 152 179 206 226 243 236 229 239 258 268 287 9
208 217 222 250 256 237 235 225 209 229 235 230 230 216 218 238 250 262 265 250 248 260 257 255 255 251 251 251 241 235 235 247 253 247 237 228 222 211 206 203 191 186 186 183 186 187 185 185 182 178 176 178 180 180 181 181 178 177 174 167 163 163 164 164 163 162 162 161 156 151 146 142 138 133 130 126 121 120 121 120 119 120 116 113 116 115 113 129 145 151 150 130 52 30 4 24 29
204 208 214 228 240 246 243 235 229 240 238 233 230 222 232 240 232 244 253 252 248 253 254 248 250 257 261 261 255 247 240 245 250 247 239 226 221 213 204 201 193 188 185 179 179 180 180 179 178 176 173 174 176 176 177 177 174 173 171 165 158 156 158 159 158 158 160 160 156 152 148 144 139 133 128 122 118 115 110 108 105 102 99 95 95 97 95 94 95 89 80 72 64 54 47 44 29
210 205 214 223 222 234 239 237 241 253 260 229 204 216 230 230 211 221 238 253 246 247 255 254 250 253 258 264 270 263 246 237 237 241 242 233 220 210 202 198 193 188 183 178 176 176 175 174 175 174 169 167 170 171 171 171 169 167 167 165 159 155 153 152 151 151 153 153 151 149 146 144 141 135 129 124 120 116 110 106 102 97 94 92 90 91 90 88 89 85 79 75 72 67 62 57 48
225 202 214 229 230 238 249 262 266 280 291 250 198 228 239 257 310 263 246 289 135 222 253 260 259 253 250 259 263 256 243 222 228 232 233 232 215 203 198 190 184 180 176 175 175 173 171 169 170 169 165 163 164 165 165 164 164 164 164 163 160 156 153 149 147 147 147 147 146 145 143 141 139 135 132 129 124 121 117 113 108 102 97 93 90 89 87 86 87 88 87 84 81 75 70 67 61
238 205 218 234 248 252 256 265 269 266 264 250 227 249 253 260 280 264 257 263 219 199 228 249 261 262 253 254 257 258 249 218 222 224 223 221 208 200 195 186 180 175 171 170 168 167 167 165 163 161 159 159 161 162 162 161 160 159 159 159 157 154 151 148 145 144 143 143 142 141 139 136 134 133 131 130 126 123 121 117 113 109 104 100 95 90 88 87 86 85 85 83 82 79 74 70 66
262 238 230 245 289 254 248 259 259 250 254 251 241 252 255 255 260 240 240 255 248 205 187 237 268 279 266 256 258 267 275 250 233 230 225 212 200 197 189 183 180 174 169 163 161 163 162 159 156 154 152 152 155 156 156 155 155 153 153 153 152 150 148 144 142 140 138 137 134 133 132 130 129 129 128 126 125 123 120 117 114 111 108 105 101 97 93 90 86 83 80 80 80 80 76 70 64
247 256 251 225 250 246 229 239 246 246 253 255 247 252 253 250 257 254 245 252 256 243 198 216 252 268 267 260 261 270 279 270 246 233 230 215 202 196 184 179 174 168 164 158 158 161 159 156 153 149 148 149 150 150 149 149 148 147 146 146 144 142 139 137 136 134 133 130 128 127 127 126 126 126 125 124 122 121 119 117 114 111 110 107 104 101 96 92 88 83 79 77 76 75 73 68 63
254 267 253 235 252 266 255 249 251 249 254 260 254 252 251 247 250 255 254 254 260 268 274 269 270 276 279 283 284 278 269 253 240 225 224 215 205 197 184 177 169 163 158 154 155 155 152 154 153 150 149 148 147 146 144 143 142 140 139 138 137 135 134 133 132 130 128 126 126 126 125 125 126 125 124 123 122 120 118 116 113 111 110 108 104 100 96 92 88 83 78 74 70 67 66 62 58
302 291 273 257 259 276 272 262 252 252 261 265 261 257 254 257 275 266 262 265 278 302 319 323 323 313 309 323 325 298 278 248 233 219 213 206 199 192 180 170 161 155 152 151 152 151 150 151 150 150 148 146 144 143 141 140 138 137 136 135 135 134 132 131 130 128 127 126 127 127 126 126 125 124 123 122 119 117 115 112 109 107 105 103 100 96 93 91 88 83 80 75 70 65 62 59 53
284 280 281 280 278 278 271 257 231 231 252 256 262 267 259 263 20 6 350 359 14 12 354 341 344 332 318 322 319 302 282 251 232 216 203 197 191 185 173 160 154 152 152 153 151 149 149 148 147 147 146 145 144 143 141 140 138 138 137 135 134 133 132 131 129 128 127 127 127 127 126 126 123 121 120 118 115 113 110 108 105 103 101 98 96 94 92 89 86 83 79 75 71 68 64 59 52